sat.trackr.live / text

‹ back to catalog

GAOFEN-12 01

NORAD 44819 · 2019-082A

PAYLOAD ACTIVE UNKNOWN

§ Identity

Operator
Country
PRC
Launch date
2019-11-27
Launch site
TAISC
Launch vehicle
Mass (kg)
RCS (m²)

Purposes: earth_obs

External: N2YO · Heavens-Above · Gunter

§ Orbital elements

Epoch: 2026-09-20T05:47:33.656928Z

Period
97.26 min
Inclination
97.8151°
Eccentricity
0.0002483
Mean motion
14.80521174 rev/d
Perigee alt
625.9 km
Apogee alt
629.4 km
Semi-major
7,005.8 km
B*
3.6034e-5
RAAN
267.1361°
Arg perigee
88.3180°
Mean anomaly
271.8317°
Rev number
36,815

§ Raw data

GAOFEN-12 011 44819U 19082A   26263.24136177  .00000225  00000+0  36034-4 0  99942 44819  97.8151 267.1361 0002483  88.3180 271.8317 14.80521174368155

JSON: /api/v1/satellites/44819 · /tle

For live sub-satellite position, see the globe view (requires WebGL).

§ Visibility from observer

Set your observer location to see the next 7 days of passes ≥ 10°. The values pass through the URL so the page stays shareable.

No JS? Fill the form by hand. The geolocation button needs JavaScript.